Regional Weather Roundup
Issued by NWS Cleveland, OH

Home | Current Version | Previous Version | Graphics & Text | Print | Product List | Glossary On
Versions: 1 2 3 4 5 6 7 8 9 10 11 12 13 14 15 16 17 18 19 20 21 22 23 24 25 26 27 28 29 30 31 32 33 34 35 36 37 38 39 40 41 42 43 44 45 46 47 48 49 50
000
ASUS41 KCLE 220710
RWRCLE
OHIO REGIONAL WEATHER ROUNDUP
NATIONAL WEATHER SERVICE CLEVELAND, OH
200 AM EST MON DEC 22 2014

NOTE: "FAIR" INDICATES FEW OR NO CLOUDS BELOW 12,000 FEET WITH NO
SIGNIFICANT WEATHER AND/OR OBSTRUCTIONS TO VISIBILITY.

OHZ001>008-015>018-024>027-034-035-043-044-220800-
   NORTHWEST OHIO

CITY           SKY/WX    TMP DP  RH WIND       PRES   REMARKS
DEFIANCE       PTCLDY    26  22  84 E6        30.12F FOG     WCI  19
FINDLAY        PTCLDY    27  21  78 E6        30.11F WCI  20
TOLEDO EXPRESS PTCLDY    25  21  85 SE3       30.14F FOG
TOLEDO EXEC    MOCLDY    25  20  81 E7        30.15F HAZE    WCI  17
LIMA           PTCLDY    28  22  78 E9        30.08F HAZE    WCI  19
$$

OHZ009>014-019>023-028>033-038-089-220800-
   NORTHEAST OHIO

CITY           SKY/WX    TMP DP  RH WIND       PRES   REMARKS
CLE-HOPKINS    MOCLDY    24  19  81 CALM      30.18F
CLE-LAKEFRONT  PTCLDY    29  21  72 SE5       30.16F WCI  24
CUY CO. ARPT   NOT AVBL
LORAIN-ELYRIA  PTCLDY    24  20  84 CALM      30.15F
ASHTABULA      CLEAR     24  20  84 E5        30.18F WCI  18
AKRON-CANTON   PTCLDY    25  20  81 E8        30.13F HAZE    WCI  16
WOOSTER        CLEAR     22  18  85 E5        30.13F WCI  16
MANSFIELD      CLEAR     24  21  88 SE8       30.10F WCI  15
YOUNGSTOWN     PTCLDY    25  20  81 E9        30.15S WCI  15
$$

OHZ042-051>053-060>062-070>072-077>081-220800-
  SOUTHWEST OHIO

CITY           SKY/WX    TMP DP  RH WIND       PRES   REMARKS
CINC-COVINGTON MOCLDY    30  23  75 E5        30.06F WCI  25
CINC-LUNKEN    CLOUDY    23  21  92 CALM      30.10F FOG
HAMILTON       MOCLDY    24  22  91 CALM      30.09F FOG
DAYTON         PTCLDY    28  24  85 E7        30.08F WCI  21
WRIGHT-PAT AFB PTCLDY    26  23  85 NE2       30.09F
DAYTON GENERAL FAIR      28  24  85 E8        30.07S WCI  20
WILMINGTON     CLEAR     25  22  88 E9        30.07F FOG     WCI  15
$$

OHZ036-037-039>041-045>050-054>059-063>069-073>076-082>088-220800-
  CENTRAL AND SOUTHEAST OHIO

CITY           SKY/WX    TMP DP  RH WIND       PRES   REMARKS
COLUMBUS       PTCLDY    27  21  78 E5        30.11F WCI  22
OSU AIRPORT    CLEAR     24  20  84 NE3       30.10F
BOLTON FIELD   CLEAR     26  23  89 E3        30.11F FOG
RICKENBACK AFB CLEAR     25  22  87 NE5       30.10F WCI  19
NEWARK         CLEAR     25  21  85 NE5       30.11F WCI  19
MARION         PTCLDY    23  18  81 SE6       30.12F HAZE    WCI  16
LANCASTER      CLEAR     25  18  74 CALM      30.11F HAZE
ZANESVILLE     CLEAR     22  19  89 NE3       30.12F FOG
NEW PHILLY     CLEAR     21  18  88 CALM      30.15F FOG
$$



USA.gov is the U.S. government's official web portal to all federal, state and local government web resources and services.